Location: Austin
(30.3000°N, 97.7500°W)
Time: 06:09:02
(UTC-05:00)

AQUA - Pass Details

Date: 16 June 2025
Orbit: 688 x 690 km, 98.4° (Epoch: 08 July)

Event Time Altitude Azimuth Distance (km) Brightness Sun altitude
Rises 04:32:20 0° 10° (N) 3,059 8.0 -21.0°
Reaches altitude 10° 04:34:35 10° 9° (N) 2,139 7.1 -20.7°
Maximum altitude 04:39:15 79° 284° (WNW) 704 3.7 -20.0°
Enters shadow 04:40:52 41° 205° (SSW) 991 4.1 -19.7°
